Weather History for Hillsdale, MI

Change the Weather History Date:

Saturday, January 26, 2013

  Actual Average Record
Temperature  
Mean Temperature 20 °F -  
Max Temperature 25 °F 30 °F 65 °F (1950)
Min Temperature 14 °F 12 °F -20 °F (1987)
Degree Days  
Heating Degree Days 46    
Moisture  
Dew Point 15 °F    
Average Humidity 77    
Maximum Humidity 93    
Minimum Humidity 53    
Precipitation  
Precipitation 0.00 in - - ()
Sea Level Pressure  
Sea Level Pressure 30.23 in    
Wind  
Wind Speed 5 mph (NW)    
Max Wind Speed 14 mph    
Max Gust Speed 18 mph    
Visibility 8 miles    
Events Snow    
Averages and records for this station are not official NWS values.
T = Trace of Precipitation, MM = Missing Value Source: NWS Daily Summary

Daily Weather History Graph

Daily Weather History Graph

Search for Another Location

Airport:

Trip Planner

Search our weather history database for the weather conditions in past years. The results will help you decide how hot, cold, wet, or windy it might be!

Date:

Astronomy

Jan. 26, 2013 Rise Set
Actual Time 7:56 AM EST 5:46 PM EST
Civil Twilight 7:26 AM EST 6:16 PM EST
Nautical Twilight 6:52 AM EST 6:49 PM EST
Astronomical Twilight 6:19 AM EST 7:22 PM EST
Moon 5:40 PM EST (1/26) 7:13 AM EST (1/26)
Length of Visible Light 10h 49m
Length of Day
9h 49m
Full, 100% of the Moon is Illuminated
Jan 26
Full
Jan 26
Full
Feb 3
Last Quarter
Feb 10
New
Feb 17
First Quarter

Hourly Weather History & Observations

Time (EST) Temp. Windchill Dew Point Humidity Pressure Visibility Wind Dir Wind Speed Gust Speed Precip Events Conditions
12:14 AM 22.6 °F 18.0 °F 20.5 °F 91% 30.00 in 3.0 mi West 3.5 mph - N/A Snow Light Snow
12:35 AM 22.6 °F 18.0 °F 20.7 °F 92% 30.01 in 2.5 mi West 3.5 mph - N/A Snow Light Snow
12:54 AM 22.8 °F 18.2 °F 20.8 °F 92% 30.01 in 2.5 mi West 3.5 mph - N/A Snow Light Snow
1:15 AM 22.8 °F 18.2 °F 20.8 °F 92% 30.01 in 2.5 mi West 3.5 mph - N/A Snow Light Snow
1:35 AM 22.5 °F 17.8 °F 20.7 °F 93% 30.02 in 3.0 mi West 3.5 mph - N/A Snow Light Snow
1:54 AM 22.8 °F 16.7 °F 21.0 °F 93% 30.03 in 3.0 mi West 4.6 mph - N/A Snow Light Snow
2:15 AM 22.5 °F 17.8 °F 20.7 °F 93% 30.04 in 3.0 mi West 3.5 mph - N/A Snow Light Snow
2:34 AM 22.5 °F 16.3 °F 20.7 °F 93% 30.04 in 3.0 mi West 4.6 mph - N/A Snow Light Snow
2:55 AM 22.5 °F 16.3 °F 20.7 °F 93% 30.05 in 3.0 mi WNW 4.6 mph - N/A Snow Light Snow
3:15 AM 22.5 °F 15.1 °F 20.1 °F 91% 30.06 in 5.0 mi WNW 5.8 mph - N/A Snow Light Snow
3:34 AM 22.1 °F 14.7 °F 19.8 °F 91% 30.06 in 5.0 mi WNW 5.8 mph - N/A Snow Light Snow
3:55 AM 21.9 °F 13.4 °F 19.4 °F 90% 30.07 in 5.0 mi WNW 6.9 mph - N/A Snow Light Snow
4:15 AM 21.7 °F 17.0 °F 19.0 °F 89% 30.08 in 7.0 mi NW 3.5 mph - N/A Snow Light Snow
4:34 AM 21.6 °F 15.3 °F 18.9 °F 89% 30.09 in 5.0 mi NW 4.6 mph - N/A Snow Light Snow
4:55 AM 21.4 °F 15.1 °F 18.5 °F 89% 30.08 in 5.0 mi NW 4.6 mph - N/A Snow Light Snow
5:15 AM 21.0 °F 14.6 °F 18.1 °F 89% 30.09 in 5.0 mi WNW 4.6 mph - N/A Snow Light Snow
5:34 AM 21.0 °F 14.6 °F 18.3 °F 89% 30.10 in 7.0 mi NW 4.6 mph - N/A Snow Light Snow
5:55 AM 21.0 °F 14.6 °F 18.1 °F 89% 30.11 in 7.0 mi NW 4.6 mph - N/A Snow Light Snow
6:14 AM 20.7 °F 13.0 °F 17.8 °F 89% 30.12 in 5.0 mi NW 5.8 mph - N/A Snow Light Snow
6:34 AM 20.7 °F 11.9 °F 17.8 °F 89% 30.13 in 5.0 mi NW 6.9 mph - N/A Snow Light Snow
6:55 AM 20.7 °F 11.9 °F 17.8 °F 89% 30.14 in 5.0 mi WNW 6.9 mph - N/A Snow Light Snow
7:14 AM 20.7 °F 11.9 °F 17.8 °F 89% 30.15 in 5.0 mi WNW 6.9 mph - N/A Snow Light Snow
7:35 AM 20.7 °F 13.0 °F 17.6 °F 88% 30.16 in 4.0 mi NW 5.8 mph - N/A Snow Light Snow
7:55 AM 20.7 °F 14.2 °F 17.4 °F 87% 30.16 in 5.0 mi NW 4.6 mph - N/A Snow Light Snow
8:14 AM 20.3 °F 12.5 °F 17.2 °F 88% 30.18 in 3.0 mi WNW 5.8 mph - N/A Snow Light Snow
8:35 AM 20.1 °F 12.3 °F 17.1 °F 88% 30.19 in 2.5 mi WNW 5.8 mph - N/A Snow Light Snow
8:55 AM 20.7 °F 13.0 °F 17.2 °F 87% 30.19 in 4.0 mi WNW 5.8 mph - N/A Snow Light Snow
9:14 AM 20.7 °F 11.9 °F 17.2 °F 87% 30.20 in 4.0 mi WNW 6.9 mph - N/A Snow Light Snow
9:35 AM 20.7 °F 10.2 °F 17.1 °F 86% 30.21 in 5.0 mi NW 9.2 mph - N/A Snow Light Snow
9:55 AM 20.8 °F 10.4 °F 16.3 °F 83% 30.22 in 10.0 mi NW 9.2 mph - N/A   Overcast
10:14 AM 21.6 °F 10.6 °F 14.9 °F 76% 30.23 in 10.0 mi WNW 10.4 mph - N/A   Overcast
10:35 AM 22.5 °F 11.7 °F 13.6 °F 69% 30.24 in 10.0 mi NW 10.4 mph - N/A   Overcast
10:55 AM 22.6 °F 11.9 °F 12.9 °F 66% 30.25 in 10.0 mi NNW 10.4 mph - N/A   Overcast
11:14 AM 22.6 °F 10.1 °F 12.6 °F 65% 30.26 in 10.0 mi NNW 13.8 mph - N/A   Mostly Cloudy
11:54 AM 24.1 °F 12.5 °F 11.5 °F 59% 30.27 in 10.0 mi NW 12.7 mph 17.3 mph N/A   Clear
12:14 PM 23.9 °F 12.9 °F 11.7 °F 60% 30.27 in 10.0 mi NNW 11.5 mph 16.1 mph N/A   Scattered Clouds
12:35 PM 23.9 °F 12.9 °F 12.6 °F 62% 30.27 in 10.0 mi NW 11.5 mph 18.4 mph N/A   Mostly Cloudy
12:54 PM 24.1 °F 14.4 °F 13.5 °F 64% 30.27 in 10.0 mi NNW 9.2 mph - N/A   Overcast
1:14 PM 24.3 °F 13.9 °F 13.1 °F 63% 30.27 in 10.0 mi NW 10.4 mph - N/A   Overcast
1:35 PM 24.4 °F 16.5 °F 13.3 °F 63% 30.27 in 10.0 mi WNW 6.9 mph - N/A   Overcast
1:54 PM 24.3 °F 14.6 °F 13.8 °F 64% 30.27 in 10.0 mi WNW 9.2 mph - N/A Snow Light Snow
2:15 PM 24.4 °F 18.6 °F 13.6 °F 64% 30.27 in 10.0 mi NW 4.6 mph - N/A   Overcast
2:35 PM 24.6 °F 16.7 °F 13.3 °F 62% 30.27 in 10.0 mi NW 6.9 mph - N/A   Overcast
2:54 PM 25.0 °F 16.3 °F 12.7 °F 60% 30.28 in 10.0 mi NW 8.1 mph - N/A   Overcast
3:15 PM 25.2 °F 16.5 °F 11.8 °F 57% 30.28 in 10.0 mi NW 8.1 mph - N/A   Mostly Cloudy
3:35 PM 25.9 °F 17.4 °F 11.7 °F 55% 30.28 in 10.0 mi NW 8.1 mph - N/A   Scattered Clouds
3:54 PM 25.2 °F 18.3 °F 11.3 °F 56% 30.29 in 10.0 mi NNW 5.8 mph - N/A   Scattered Clouds
4:15 PM 25.7 °F 20.1 °F 10.8 °F 53% 30.30 in 10.0 mi NNW 4.6 mph - N/A   Clear
4:34 PM 25.3 °F 16.0 °F 11.3 °F 55% 30.30 in 10.0 mi WNW 9.2 mph - N/A   Clear
4:55 PM 24.6 °F 17.7 °F 10.9 °F 56% 30.31 in 10.0 mi NW 5.8 mph - N/A   Clear
5:15 PM 24.1 °F 18.2 °F 10.6 °F 56% 30.32 in 10.0 mi NNW 4.6 mph - N/A   Clear
5:34 PM 23.5 °F 19.1 °F 10.0 °F 56% 30.32 in 10.0 mi NNW 3.5 mph - N/A   Clear
5:55 PM 22.5 °F - 10.0 °F 59% 30.34 in 10.0 mi Calm Calm - N/A   Clear
6:15 PM 21.4 °F - 10.2 °F 62% 30.34 in 10.0 mi Calm Calm - N/A   Clear
6:34 PM 20.5 °F - 10.0 °F 64% 30.36 in 10.0 mi Calm Calm - N/A   Clear
6:55 PM 20.3 °F - 9.3 °F 63% 30.36 in 10.0 mi Calm Calm - N/A   Clear
7:15 PM 18.1 °F - 9.5 °F 69% 30.35 in 10.0 mi Calm Calm - N/A   Clear
7:34 PM 14.0 °F - 7.3 °F 75% 30.35 in 7.0 mi Calm Calm - N/A   Clear
7:55 PM 14.4 °F - 8.4 °F 77% 30.36 in 10.0 mi Calm Calm - N/A   Clear
8:15 PM 15.6 °F - 9.9 °F 78% 30.37 in 10.0 mi Calm Calm - N/A   Clear
8:34 PM 16.2 °F - 10.0 °F 77% 30.36 in 10.0 mi Calm Calm - N/A   Clear
8:55 PM 14.9 °F - 10.0 °F 81% 30.36 in 7.0 mi Calm Calm - N/A   Clear
9:14 PM 14.0 °F - 9.1 °F 81% 30.36 in 10.0 mi Calm Calm - N/A   Clear
9:35 PM 15.8 °F - 11.5 °F 83% 30.35 in 7.0 mi Calm Calm - N/A   Clear
9:55 PM 16.3 °F - 11.8 °F 82% 30.35 in 10.0 mi Calm Calm - N/A   Clear
10:14 PM 16.7 °F - 11.8 °F 81% 30.37 in 10.0 mi Calm Calm - N/A   Clear
10:35 PM 16.9 °F - 11.8 °F 81% 30.37 in 10.0 mi Calm Calm - N/A   Scattered Clouds
10:54 PM 17.1 °F - 12.6 °F 82% 30.37 in 10.0 mi Calm Calm - N/A   Clear
11:14 PM 16.3 °F - 12.4 °F 84% 30.38 in 10.0 mi Calm Calm - N/A   Clear
11:34 PM 17.2 °F - 13.1 °F 84% 30.39 in 10.0 mi Calm Calm - N/A   Clear
11:54 PM 16.3 °F - 12.4 °F 84% 30.40 in 10.0 mi Calm Calm - N/A   Clear